Flag for India Weather past 2 weeks in Qadian, Punjab, India

Now
91 °F

Haze.


Feels Like: 105 °F
Forecast: 76 / 98 °F
Wind: 3 mph from Northwest

Location: Amritsar Airport

Current Time: Sep 1, 2015 at 12:14:46 PM

Latest Report: Sep 1, 2015 at 11:30 AM


Visibility: 3 mi

Pressure: 29.62 "Hg

Humidity: 63%

Dew point: 77 °F

Location of QadianLocation

Historic Weather in Qadian — Graph

°F

Qadian temperature yesterday

Maximum temperature yesterday: 93 °F (at 2:30 PM)
Minimum temperature yesterday: 77 °F (at 2:30 AM)
Average temperature yesterday: 85 °F

Past Weeks' High & Low Weather Summary

 TemperatureHumidityPressure
High97 °F (Aug 27, 1:00 PM)100% (Aug 18, 5:30 AM)29.71 "Hg (Aug 18, 5:30 AM)
Low75 °F (Aug 21, 5:00 PM)44% (Aug 29, 1:30 PM)29.53 "Hg (Aug 20, 5:00 PM)
Average86 °F81%29.61 "Hg
* Reported Aug 17 11:30 AM — Sep 1 10:30 AM, Qadian, Weather by CustomWeather, © 2015

Note: Actual official high and low records may vary slightly from our data, if they occured in-between our weather recording intervals... More about our weather records

Advertising

Qadian weather history for previous 24 hours

 ConditionsComfort  
Time TempWeatherWind HumidityBarometerVisibility
10:30 AM
Tue, Sep 1
91 °FHaze.No wind63%29.62 "Hg2 mi
10:00 AM91 °FHaze.No wind59%29.62 "Hg2 mi
9:00 AM88 °FFog.No wind70%29.62 "Hg2 mi
8:00 AM84 °FFog.No wind89%29.59 "Hg1 mi
7:30 AM82 °FFog.No wind89%29.59 "Hg1 mi
7:00 AM81 °FFog.No wind94%29.59 "Hg1 mi
6:30 AM81 °FFog.No wind94%29.59 "Hg1 mi
6:00 AM79 °FFog.No wind100%29.59 "Hg1 mi
5:30 AM81 °FFog.No wind94%29.59 "Hg1 mi
5:00 AM81 °FFog.No wind94%29.59 "Hg1 mi
4:30 AM81 °FFog.No wind94%29.59 "Hg2 mi
2:00 AM82 °FFog.No wind89%29.59 "Hg2 mi
1:30 AM81 °FFog.No wind94%29.59 "Hg2 mi
12:30 AM82 °FFog.No wind89%29.62 "Hg2 mi
12:00 AM82 °FFog.No wind89%29.62 "Hg2 mi
11:30 PM
Mon, Aug 31
82 °FFog.No wind89%29.62 "Hg2 mi
11:00 PM82 °FFog.No wind84%29.62 "Hg2 mi
10:30 PM84 °FFog.No wind79%29.62 "Hg2 mi
10:00 PM84 °FFog.No wind79%29.62 "Hg2 mi
9:30 PM84 °FFog.No wind79%29.62 "Hg2 mi
9:00 PM84 °FFog.2 mph84%29.62 "Hg2 mi
8:30 PM84 °FFog.No wind84%29.62 "Hg2 mi
8:00 PM84 °FClear.No wind84%29.62 "Hg2 mi
7:30 PM86 °FClear.1 mph79%29.62 "Hg3 mi
7:00 PM88 °FFog.5 mph75%29.59 "Hg3 mi
6:30 PM90 °FClear.No wind75%29.62 "Hg4 mi
6:00 PM90 °FClear.5 mph71%29.62 "Hg4 mi
5:30 PM91 °FClear.5 mph63%29.62 "Hg4 mi
5:00 PM91 °FClear.7 mph59%29.62 "Hg4 mi
4:30 PM93 °FClear.5 mph59%29.62 "Hg4 mi
4:00 PM93 °FClear.5 mph59%29.62 "Hg4 mi
3:30 PM93 °FClear.6 mph56%29.65 "Hg4 mi
3:00 PM93 °FClear.7 mph56%29.65 "Hg4 mi
2:30 PM93 °FClear.7 mph56%29.65 "Hg4 mi
2:00 PM91 °FClear.6 mph59%29.68 "Hg4 mi
1:30 PM91 °FClear.6 mph59%29.68 "Hg4 mi
1:00 PM91 °FClear.3 mph56%29.68 "Hg4 mi
Weather by CustomWeather, © 2015

See weather overviewHow to use our weather pages